Location: Guferjoch
(46.7462°N, 8.4506°E)
Time: 13:16:10
(UTC+00:00)

Cosmos 2221 Rocket - Pass Details

Date: 14 July 2020
Orbit: 619 x 649 km, 82.5° (Epoch: 06 August)

Event Time Altitude Azimuth Distance (km) Brightness Sun altitude
Rises 02:10:15 0° 343° (NNW) 2,912 7.5 -12.9°
Reaches altitude 10° 02:12:37 10° 334° (NNW) 1,998 6.5 -12.6°
Maximum altitude 02:16:38 35° 269° (W) 1,007 4.3 -12.2°
Enters shadow 02:19:25 17° 212° (SSW) 1,561 5.0 -11.9°
